FDX9900 KMSY-KBNA

Flight info

Callsign FDX9900
Flight time 1h 14m
Altitude 33000
Route LBY MEI KISTS CHSNE3
Aircraft A306/H-SDE3FGHIRWY/LB1

Departure

Time 2026-05-03 21:03
Airport Louis Armstrong New Orleans International Airport (KMSY)

Arrival

Time 2026-05-03 22:18
Airport Nashville International Airport (KBNA)
Time Latitude Longitude Altitude Speed Heading
2026-05-03 20:34 29.99664 -90.26300 18 ft 0 kts 17°
2026-05-03 20:35 29.99663 -90.26300 18 ft 0 kts 17°
2026-05-03 20:57 29.99647 -90.26305 18 ft 4 kts 23°
2026-05-03 20:57 29.99641 -90.26307 21 ft 4 kts 100°
2026-05-03 20:57 29.99646 -90.26335 20 ft 3 kts 106°
2026-05-03 20:57 29.99652 -90.26359 21 ft 4 kts 106°
2026-05-03 20:58 29.99659 -90.26385 22 ft 1 kts 106°
2026-05-03 21:00 29.99621 -90.26364 20 ft 12 kts 171°
2026-05-03 21:00 29.99551 -90.26376 20 ft 17 kts 194°
2026-05-03 21:00 29.99486 -90.26491 20 ft 13 kts 283°
2026-05-03 21:00 29.99512 -90.26601 46 ft 19 kts 285°
2026-05-03 21:01 29.99554 -90.26774 25 ft 28 kts 285°
2026-05-03 21:01 29.99602 -90.26974 24 ft 25 kts 286°
2026-05-03 21:01 29.99651 -90.27168 17 ft 25 kts 286°
2026-05-03 21:01 29.99698 -90.27357 16 ft 24 kts 284°
2026-05-03 21:02 29.99738 -90.27537 17 ft 23 kts 284°
2026-05-03 21:02 29.99698 -90.27669 15 ft 18 kts 212°
2026-05-03 21:02 29.99582 -90.27709 13 ft 16 kts 178°
2026-05-03 21:02 29.99518 -90.27556 14 ft 46 kts 104°
2026-05-03 21:03 29.99368 -90.26948 19 ft 109 kts 105°
2026-05-03 21:03 29.99112 -90.25891 25 ft 162 kts 106°
2026-05-03 21:03 29.98786 -90.24544 386 ft 178 kts 104°
2026-05-03 21:03 29.98743 -90.23020 753 ft 213 kts 73°
2026-05-03 21:04 29.99562 -90.21421 962 ft 248 kts 41°
2026-05-03 21:04 30.01092 -90.20527 1849 ft 249 kts 11°
2026-05-03 21:04 30.02809 -90.20363 2893 ft 247 kts
2026-05-03 21:04 30.04511 -90.20368 3818 ft 249 kts 360°
2026-05-03 21:05 30.06274 -90.20395 4697 ft 252 kts 359°
2026-05-03 21:05 30.08016 -90.20423 5491 ft 255 kts 359°
2026-05-03 21:05 30.09803 -90.20448 6290 ft 259 kts 359°
2026-05-03 21:05 30.11621 -90.20467 7049 ft 263 kts 359°
2026-05-03 21:06 30.13429 -90.20152 7745 ft 268 kts 24°
2026-05-03 21:06 30.14857 -90.18770 8460 ft 274 kts 52°
2026-05-03 21:06 30.15786 -90.16826 9191 ft 279 kts 64°
2026-05-03 21:06 30.16510 -90.14719 9854 ft 285 kts 67°
2026-05-03 21:07 30.17254 -90.12582 10432 ft 289 kts 61°
2026-05-03 21:07 30.18295 -90.10590 10992 ft 290 kts 50°
2026-05-03 21:07 30.19665 -90.08879 11569 ft 291 kts 38°
2026-05-03 21:07 30.21275 -90.07448 12158 ft 293 kts 30°
2026-05-03 21:08 30.23024 -90.06227 12727 ft 295 kts 25°
2026-05-03 21:08 30.24851 -90.05121 13286 ft 298 kts 23°
2026-05-03 21:08 30.26715 -90.04060 13852 ft 301 kts 22°
2026-05-03 21:08 30.28609 -90.02990 14363 ft 304 kts 22°
2026-05-03 21:09 30.30514 -90.01897 14859 ft 307 kts 23°
2026-05-03 21:09 30.32431 -90.00776 15368 ft 310 kts 23°
2026-05-03 21:09 30.34354 -89.99629 15863 ft 313 kts 23°
2026-05-03 21:09 30.36295 -89.98460 16355 ft 315 kts 24°
2026-05-03 21:10 30.38247 -89.97278 16838 ft 318 kts 24°
2026-05-03 21:10 30.40215 -89.96083 17309 ft 321 kts 24°
2026-05-03 21:10 30.42202 -89.94877 17778 ft 324 kts 23°
2026-05-03 21:10 30.44205 -89.93661 18250 ft 326 kts 23°
2026-05-03 21:11 30.46223 -89.92437 18674 ft 329 kts 23°
2026-05-03 21:11 30.48254 -89.91205 19083 ft 331 kts 23°
2026-05-03 21:11 30.50302 -89.89963 19499 ft 333 kts 22°
2026-05-03 21:11 30.52365 -89.88711 19918 ft 335 kts 22°
2026-05-03 21:12 30.54436 -89.87454 20333 ft 337 kts 22°
2026-05-03 21:12 30.56510 -89.86193 20735 ft 338 kts 22°
2026-05-03 21:12 30.58602 -89.84921 21149 ft 340 kts 22°
2026-05-03 21:12 30.60697 -89.83646 21557 ft 341 kts 22°
2026-05-03 21:13 30.62805 -89.82362 21964 ft 343 kts 22°
2026-05-03 21:13 30.64919 -89.81075 22373 ft 344 kts 21°
2026-05-03 21:13 30.67040 -89.79782 22782 ft 345 kts 21°
2026-05-03 21:13 30.69170 -89.78484 23163 ft 347 kts 21°
2026-05-03 21:14 30.71312 -89.77177 23553 ft 348 kts 21°
2026-05-03 21:14 30.73462 -89.75865 23905 ft 350 kts 21°
2026-05-03 21:14 30.75632 -89.74541 24197 ft 352 kts 21°
2026-05-03 21:14 30.77805 -89.73214 24495 ft 354 kts 21°
2026-05-03 21:15 30.79992 -89.71879 24792 ft 356 kts 21°
2026-05-03 21:15 30.82196 -89.70532 25092 ft 358 kts 21°
2026-05-03 21:15 30.84407 -89.69179 25383 ft 360 kts 21°
2026-05-03 21:15 30.86629 -89.67819 25684 ft 362 kts 21°
2026-05-03 21:16 30.88826 -89.66471 26048 ft 361 kts 21°
2026-05-03 21:16 30.91042 -89.65111 26435 ft 359 kts 21°
2026-05-03 21:16 30.93252 -89.63754 26793 ft 359 kts 21°
2026-05-03 21:16 30.95458 -89.62399 27147 ft 359 kts 20°
2026-05-03 21:17 30.97662 -89.61045 27496 ft 358 kts 20°
2026-05-03 21:17 30.99153 -89.60131 27717 ft 358 kts 20°
2026-05-03 21:17 31.02069 -89.58340 28154 ft 358 kts 20°
2026-05-03 21:17 31.04271 -89.56987 28462 ft 358 kts 20°
2026-05-03 21:18 31.06469 -89.55635 28771 ft 358 kts 20°
2026-05-03 21:18 31.08671 -89.54281 29077 ft 358 kts 20°
2026-05-03 21:18 31.10873 -89.52925 29391 ft 358 kts 20°
2026-05-03 21:18 31.13072 -89.51571 29663 ft 358 kts 20°
2026-05-03 21:19 31.15275 -89.50213 29956 ft 358 kts 19°
2026-05-03 21:19 31.17475 -89.48856 30223 ft 358 kts 19°
2026-05-03 21:19 31.19677 -89.47499 30415 ft 359 kts 19°
2026-05-03 21:19 31.21885 -89.46137 30586 ft 361 kts 19°
2026-05-03 21:20 31.24113 -89.44763 30742 ft 362 kts 19°
2026-05-03 21:20 31.26346 -89.43385 30923 ft 364 kts 20°
2026-05-03 21:20 31.28591 -89.41998 31082 ft 366 kts 20°
2026-05-03 21:20 31.30848 -89.40603 31244 ft 368 kts 20°
2026-05-03 21:21 31.33116 -89.39199 31408 ft 370 kts 20°
2026-05-03 21:21 31.35394 -89.37788 31580 ft 371 kts 20°
2026-05-03 21:21 31.37682 -89.36371 31741 ft 373 kts 20°
2026-05-03 21:21 31.39978 -89.34948 31900 ft 375 kts 20°
2026-05-03 21:22 31.41516 -89.33999 32013 ft 376 kts 20°
2026-05-03 21:22 31.43845 -89.32632 32165 ft 377 kts 18°
2026-05-03 21:22 31.46220 -89.31306 32324 ft 378 kts 18°
2026-05-03 21:22 31.48609 -89.30004 32472 ft 379 kts 17°
2026-05-03 21:23 31.51011 -89.28704 32638 ft 381 kts 17°
2026-05-03 21:23 31.53426 -89.27394 32796 ft 383 kts 18°
2026-05-03 21:23 31.55845 -89.26073 32953 ft 385 kts 18°
2026-05-03 21:23 31.58284 -89.24736 33083 ft 387 kts 18°
2026-05-03 21:24 31.63223 -89.22020 33166 ft 398 kts 18°
2026-05-03 21:24 31.68308 -89.19217 33162 ft 410 kts 19°
2026-05-03 21:25 31.73540 -89.16323 33155 ft 421 kts 19°
2026-05-03 21:25 31.78897 -89.13354 33155 ft 431 kts 19°
2026-05-03 21:26 31.84393 -89.10304 33159 ft 441 kts 19°
2026-05-03 21:26 31.89997 -89.07192 33166 ft 450 kts 20°
2026-05-03 21:27 31.95698 -89.04021 33169 ft 457 kts 20°
2026-05-03 21:27 32.01491 -89.00795 33172 ft 464 kts 20°
2026-05-03 21:28 32.07359 -88.97521 33166 ft 469 kts 20°
2026-05-03 21:28 32.13268 -88.94218 33159 ft 469 kts 21°
2026-05-03 21:29 32.19160 -88.90919 33156 ft 468 kts 21°
2026-05-03 21:29 32.25040 -88.87625 33148 ft 468 kts 21°
2026-05-03 21:30 32.30912 -88.84332 33145 ft 467 kts 21°
2026-05-03 21:30 32.36853 -88.81319 33145 ft 461 kts 12°
2026-05-03 21:31 32.43093 -88.80130 33147 ft 453 kts
2026-05-03 21:31 32.49363 -88.79694 33137 ft 451 kts 359°
2026-05-03 21:32 32.55634 -88.79388 33125 ft 450 kts 359°
2026-05-03 21:32 32.61890 -88.79071 33135 ft 450 kts 359°
2026-05-03 21:33 32.68137 -88.78728 33157 ft 449 kts 359°
2026-05-03 21:33 32.74374 -88.78376 33172 ft 449 kts 360°
2026-05-03 21:34 32.80607 -88.78023 33173 ft 448 kts 360°
2026-05-03 21:34 32.86834 -88.77669 33175 ft 448 kts 360°
2026-05-03 21:35 32.93063 -88.77315 33149 ft 448 kts 360°
2026-05-03 21:35 32.99287 -88.76961 33122 ft 448 kts 360°
2026-05-03 21:36 33.05502 -88.76607 33099 ft 447 kts 360°
2026-05-03 21:36 33.11681 -88.76256 33105 ft 447 kts 360°
2026-05-03 21:37 33.17946 -88.75899 33117 ft 447 kts 360°
2026-05-03 21:37 33.24116 -88.75546 33109 ft 448 kts 360°
2026-05-03 21:38 33.30350 -88.75190 33116 ft 448 kts 360°
2026-05-03 21:38 33.36576 -88.74833 33113 ft 448 kts 360°
2026-05-03 21:39 33.42801 -88.74477 33109 ft 448 kts 360°
2026-05-03 21:39 33.49038 -88.74118 33114 ft 449 kts 360°
2026-05-03 21:40 33.55269 -88.73758 33126 ft 449 kts 360°
2026-05-03 21:40 33.61512 -88.73399 33163 ft 449 kts 360°
2026-05-03 21:41 33.67753 -88.73040 33141 ft 449 kts 360°
2026-05-03 21:41 33.73998 -88.72678 33143 ft 449 kts 359°
2026-05-03 21:42 33.80238 -88.72317 33147 ft 449 kts 359°
2026-05-03 21:42 33.86486 -88.71954 33157 ft 450 kts 359°
2026-05-03 21:43 33.92748 -88.71591 33160 ft 450 kts 359°
2026-05-03 21:43 33.99004 -88.71227 33159 ft 450 kts 359°
2026-05-03 21:44 34.05251 -88.70864 33150 ft 450 kts 359°
2026-05-03 21:44 34.11513 -88.70499 33150 ft 451 kts 359°
2026-05-03 21:45 34.17744 -88.70136 33147 ft 451 kts 359°
2026-05-03 21:45 34.24044 -88.69768 33147 ft 451 kts 359°
2026-05-03 21:46 34.30275 -88.69402 33144 ft 451 kts 359°
2026-05-03 21:46 34.36586 -88.69033 33149 ft 451 kts 359°
2026-05-03 21:47 34.42854 -88.68664 33152 ft 451 kts 359°
2026-05-03 21:47 34.49130 -88.68295 33146 ft 451 kts 359°
2026-05-03 21:48 34.55398 -88.67925 33157 ft 451 kts 359°
2026-05-03 21:48 34.61671 -88.67556 33151 ft 451 kts 359°
2026-05-03 21:49 34.67902 -88.67189 33136 ft 451 kts 359°
2026-05-03 21:49 34.74169 -88.66819 33128 ft 451 kts 359°
2026-05-03 21:50 34.80435 -88.66368 33112 ft 454 kts
2026-05-03 21:50 34.83509 -88.65372 33117 ft 462 kts 17°
2026-05-03 21:50 34.86339 -88.63458 33120 ft 472 kts 33°
2026-05-03 21:51 34.88723 -88.60660 33128 ft 479 kts 45°
2026-05-03 21:51 34.90848 -88.57520 33122 ft 481 kts 47°
2026-05-03 21:51 34.95016 -88.51127 33121 ft 483 kts 47°
2026-05-03 21:52 34.99243 -88.44773 33118 ft 480 kts 41°
2026-05-03 21:52 35.01835 -88.42315 33129 ft 468 kts 26°
2026-05-03 21:52 35.04640 -88.40312 33124 ft 469 kts 27°
2026-05-03 21:53 35.09942 -88.35562 33107 ft 475 kts 35°
2026-05-03 21:53 35.14874 -88.30140 33104 ft 478 kts 38°
2026-05-03 21:54 35.19666 -88.24501 33104 ft 479 kts 39°
2026-05-03 21:54 35.24417 -88.18791 33103 ft 479 kts 40°
2026-05-03 21:55 35.29104 -88.13111 32420 ft 462 kts 40°
2026-05-03 21:55 35.31331 -88.10397 31977 ft 442 kts 40°
2026-05-03 21:55 35.33469 -88.07793 31480 ft 426 kts 39°
2026-05-03 21:56 35.35542 -88.05269 30848 ft 415 kts 39°
2026-05-03 21:56 35.37566 -88.02807 30205 ft 406 kts 39°
2026-05-03 21:56 35.39552 -88.00388 29422 ft 399 kts 39°
2026-05-03 21:56 35.41509 -87.98005 28584 ft 395 kts 39°
2026-05-03 21:57 35.43444 -87.95647 27785 ft 390 kts 39°
2026-05-03 21:57 35.45358 -87.93312 27019 ft 386 kts 39°
2026-05-03 21:57 35.47252 -87.90999 26267 ft 382 kts 39°
2026-05-03 21:57 35.49125 -87.88707 25531 ft 378 kts 39°
2026-05-03 21:58 35.50978 -87.86440 24804 ft 375 kts 39°
2026-05-03 21:58 35.52819 -87.84187 24081 ft 372 kts 39°
2026-05-03 21:58 35.54644 -87.81953 23336 ft 369 kts 39°
2026-05-03 21:58 35.56451 -87.79735 22570 ft 364 kts 40°
2026-05-03 21:59 35.58226 -87.77555 21879 ft 358 kts 40°
2026-05-03 21:59 35.59976 -87.75404 21183 ft 353 kts 40°
2026-05-03 21:59 35.61696 -87.73290 20496 ft 348 kts 40°
2026-05-03 21:59 35.63396 -87.71199 19834 ft 343 kts 40°
2026-05-03 22:00 35.65068 -87.69141 19185 ft 338 kts 40°
2026-05-03 22:00 35.66714 -87.67114 18552 ft 333 kts 40°
2026-05-03 22:00 35.68341 -87.65109 17844 ft 328 kts 40°
2026-05-03 22:00 35.69945 -87.63135 17115 ft 324 kts 40°
2026-05-03 22:01 35.71531 -87.61180 16386 ft 321 kts 40°
2026-05-03 22:01 35.73097 -87.59248 15707 ft 317 kts 41°
2026-05-03 22:01 35.74643 -87.57340 15018 ft 313 kts 41°
2026-05-03 22:01 35.76176 -87.55447 14368 ft 310 kts 40°
2026-05-03 22:02 35.77686 -87.53580 13674 ft 306 kts 41°
2026-05-03 22:02 35.79185 -87.51730 12943 ft 303 kts 41°
2026-05-03 22:02 35.80666 -87.49900 12373 ft 300 kts 42°
2026-05-03 22:02 35.82117 -87.48109 11822 ft 300 kts 42°
2026-05-03 22:03 35.83318 -87.46001 11081 ft 306 kts 64°
2026-05-03 22:03 35.84120 -87.43576 10801 ft 303 kts 65°
2026-05-03 22:03 35.84908 -87.41201 10511 ft 299 kts 65°
2026-05-03 22:03 35.85710 -87.38807 10226 ft 296 kts 65°
2026-05-03 22:04 35.86497 -87.36504 10155 ft 295 kts 64°
2026-05-03 22:04 35.87307 -87.34172 10146 ft 296 kts 64°
2026-05-03 22:04 35.88117 -87.31843 10147 ft 296 kts 64°
2026-05-03 22:04 35.88929 -87.29506 10145 ft 296 kts 64°
2026-05-03 22:05 35.89743 -87.27178 10139 ft 296 kts 64°
2026-05-03 22:05 35.90572 -87.24810 10138 ft 296 kts 64°
2026-05-03 22:05 35.91378 -87.22508 10144 ft 296 kts 64°
2026-05-03 22:05 35.92195 -87.20167 10155 ft 297 kts 64°
2026-05-03 22:06 35.93008 -87.17834 10142 ft 297 kts 64°
2026-05-03 22:06 35.93827 -87.15492 10127 ft 297 kts 64°
2026-05-03 22:06 35.94645 -87.13156 10138 ft 297 kts 64°
2026-05-03 22:06 35.95462 -87.10810 10135 ft 297 kts 64°
2026-05-03 22:07 35.96278 -87.08470 10128 ft 297 kts 64°
2026-05-03 22:07 35.97092 -87.06134 10132 ft 297 kts 64°
2026-05-03 22:07 35.97642 -87.04552 10125 ft 297 kts 64°
2026-05-03 22:07 35.98457 -87.02208 10125 ft 297 kts 64°
2026-05-03 22:08 35.99272 -86.99866 10112 ft 297 kts 64°
2026-05-03 22:08 36.00086 -86.97522 10110 ft 297 kts 64°
2026-05-03 22:08 36.00901 -86.95173 10115 ft 298 kts 64°
2026-05-03 22:08 36.01717 -86.92822 10107 ft 297 kts 64°
2026-05-03 22:09 36.02526 -86.90480 10110 ft 298 kts 64°
2026-05-03 22:09 36.03329 -86.88152 10102 ft 298 kts 64°
2026-05-03 22:09 36.04153 -86.85769 10101 ft 298 kts 64°
2026-05-03 22:10 36.06413 -86.81707 10112 ft 287 kts 27°
2026-05-03 22:10 36.08254 -86.80741 10075 ft 284 kts 15°
2026-05-03 22:10 36.10154 -86.80004 9627 ft 287 kts 14°
2026-05-03 22:10 36.12050 -86.79288 9264 ft 284 kts 14°
2026-05-03 22:11 36.13937 -86.78569 8901 ft 282 kts 14°
2026-05-03 22:11 36.15778 -86.77872 8673 ft 276 kts 13°
2026-05-03 22:11 36.17584 -86.77219 8529 ft 267 kts 13°
2026-05-03 22:11 36.19348 -86.76585 8283 ft 253 kts 13°
2026-05-03 22:12 36.20999 -86.75944 7869 ft 246 kts 15°
2026-05-03 22:12 36.22612 -86.75267 7377 ft 243 kts 14°
2026-05-03 22:12 36.24213 -86.74593 6865 ft 242 kts 15°
2026-05-03 22:12 36.25807 -86.73921 6363 ft 242 kts 15°
2026-05-03 22:13 36.27398 -86.73259 5824 ft 242 kts 15°
2026-05-03 22:13 36.28959 -86.72478 5273 ft 245 kts 30°
2026-05-03 22:13 36.30211 -86.71051 4721 ft 247 kts 58°
2026-05-03 22:13 36.30774 -86.69074 4280 ft 242 kts 85°
2026-05-03 22:14 36.30788 -86.67013 4164 ft 237 kts 99°
2026-05-03 22:14 36.30354 -86.65077 3856 ft 233 kts 114°
2026-05-03 22:14 36.29434 -86.63521 3557 ft 222 kts 151°
2026-05-03 22:14 36.28015 -86.62960 3442 ft 217 kts 177°
2026-05-03 22:15 36.26496 -86.62958 3227 ft 216 kts 189°
2026-05-03 22:15 36.25062 -86.63392 2919 ft 212 kts 201°
2026-05-03 22:15 36.23708 -86.63991 2658 ft 203 kts 200°
2026-05-03 22:15 36.22389 -86.64487 2377 ft 192 kts 199°
2026-05-03 22:16 36.21177 -86.64955 2122 ft 173 kts 201°
2026-05-03 22:16 36.20092 -86.65387 1921 ft 157 kts 199°
2026-05-03 22:16 36.19093 -86.65775 1730 ft 146 kts 200°
2026-05-03 22:16 36.18126 -86.66157 1518 ft 148 kts 200°
2026-05-03 22:17 36.17138 -86.66545 1284 ft 148 kts 201°
2026-05-03 22:17 36.16147 -86.66933 1081 ft 149 kts 200°
2026-05-03 22:17 36.15162 -86.67318 877 ft 147 kts 200°
2026-05-03 22:17 36.14190 -86.67700 688 ft 146 kts 199°
2026-05-03 22:18 36.13265 -86.68087 585 ft 115 kts 197°
2026-05-03 22:18 36.12730 -86.68270 590 ft 60 kts 198°
2026-05-03 22:18 36.12443 -86.68387 594 ft 24 kts 199°
2026-05-03 22:18 36.12341 -86.68487 598 ft 15 kts 240°
2026-05-03 22:19 36.12331 -86.68515 598 ft 0 kts 248°
2026-05-03 22:20 36.12331 -86.68534 599 ft 6 kts 279°
2026-05-03 22:20 36.12404 -86.68559 598 ft 18 kts 14°
2026-05-03 22:21 36.12543 -86.68536 593 ft 18 kts 327°
2026-05-03 22:21 36.12625 -86.68647 590 ft 10 kts 291°
2026-05-03 22:21 36.12626 -86.68651 590 ft 0 kts 291°
2026-05-03 22:22 36.12760 -86.68631 588 ft 0 kts 285°